Weather in Saygatina

Russia / Khanty-Mansi Autonomous Okrug — Yugra     61°16′03″N   72°52′34″E
temp.,
°C
wind,
m/s
gust,
m/s
humid.,
%
clouds,
%
prec.,
mm/h
press.,
hPa
HPBL,
m
6 may, thu
thu623:00+14sse6108566 3.1 998154
02:00+11sse51078100 0.0 996143
05:00+11sse71372100 0.0 993232
08:00+14sse81764100 0.1 990534
11:00+16sw101469100 0.6 9891304
14:00+10w14166776 3.7 9941160
17:00+10w121556100 3.7 9961826
20:00+9wsw9146218 0.0 998571
7 may, fri
fri723:00+7wsw916675 0.0 1000547
02:00+6wsw9137481 0.1 1000705
05:00+3w10156812 0.2 10021036
08:00+4w111465100 0.1 10031332
11:00+5w121556100 0.1 10051601
14:00+7w121751100 0.0 10061994
17:00+9wnw10185096 0.0 10082180
20:00+5nnw5106067 0.0 1010338
8 may, sat
sat823:00+3nw49694 0.0 1011217
02:00+2wnw613720 0.0 1013395
05:00+1nw612764 0.0 1015402
08:00+4nw68635 0.0 1017727
11:00+8nw67555 0.0 10181018
14:00+11nw57474 0.0 10181138
17:00+12n344348 0.0 10191111
20:00+7e466535 0.0 1019223
9 may, sun
sun923:00+6se467083 0.0 101996
02:00+6se467497 0.0 1019119
05:00+6se357783 0.3 1020158
08:00+10wnw34680 0.0 1020516
11:00+13nnw78550 0.0 10211048
14:00+14n88490 0.0 10221195
17:00+13n66515 0.0 10231052
20:00+11nne46625 0.0 1023206
10 may, mon
mon1023:00+7ese35770 0.0 1024114
02:00+6sse458354 0.0 102393
05:00+7ssw248099 0.0 1023120
08:00+9sse336794 0.0 1023346
11:00+12sse225420 0.0 10231121
14:00+14e324639 0.0 10221649
17:00+13ese55541 0.0 1022941
20:00+11ese68593 0.0 1022451